Lid_Strength_Index
2 5 4 4 10 10 13 11 8 9 8 6 5 7 8 7 10 12 2 0 0 0 -1 -1 -1 -1 -1 -1 -2 -2 -1 -1 -1 -1 -1 -1 -0 0 0 0 0 0 0 0 0 1 1 1 2
4 4 3 5 11 14 13 8 9 8 6 5 6 6 7 9 5 4 3 0 0 -0 -1 -1 -1 -1 -1 -1 -1 -1 -1 -2 -1 -1 -1 -0 0 1 1 1 1 1 1 0 1 1 1 2 2
2 3 5 8 11 13 13 9 8 6 7 6 7 5 6 8 4 3 1 1 0 0 -1 -1 -1 -1 -1 -1 -1 -1 -1 -2 -1 -1 -0 0 1 1 1 1 2 1 1 1 1 2 2 3 3
4 4 5 10 11 10 10 9 6 7 7 5 6 8 5 3 3 2 1 2 1 2 1 -1 -1 -1 -1 -1 -1 -1 -1 -0 -0 0 1 1 1 2 2 2 2 2 2 2 2 3 3 3 3
4 5 9 10 10 9 8 8 7 7 7 7 7 8 7 3 2 2 2 3 3 3 3 2 -0 -0 -1 -1 -0 -0 0 1 1 1 1 2 2 2 2 2 3 3 3 3 4 4 4 4 4
6 6 11 12 10 8 8 8 8 7 7 7 7 7 7 2 2 3 3 4 3 4 3 3 3 1 1 1 1 1 1 2 2 2 2 2 2 3 3 3 3 4 4 4 4 5 5 5 5
7 8 10 11 10 9 9 8 8 8 8 8 7 8 6 4 2 3 4 4 4 4 4 4 4 3 3 3 3 3 3 3 3 3 4 4 4 4 4 5 5 5 5 5 5 6 6 6 6
6 8 11 11 11 11 9 8 8 8 8 7 7 8 8 4 2 3 3 4 5 4 5 4 4 4 4 5 4 4 5 5 5 5 6 6 5 6 6 6 6 5 5 5 6 6 6 7 7
5 10 12 12 11 11 9 9 8 8 8 6 5 5 4 2 1 3 4 4 4 4 4 4 4 4 5 5 6 5 5 6 6 7 7 7 7 7 7 7 7 7 6 6 6 6 5 5 5
8 10 11 10 10 11 9 9 9 10 8 7 6 4 3 2 3 3 3 3 4 5 5 4 5 5 5 5 6 8 8 8 7 8 7 7 7 8 8 8 7 7 7 6 6 6 5 5 8
8 10 9 10 10 10 10 10 9 10 10 10 10 5 4 4 4 4 3 3 3 3 4 4 5 5 6 7 7 7 7 6 6 6 6 6 6 7 7 7 8 7 6 8 7 8 8 8 8
10 9 9 9 9 9 10 10 10 11 11 8 6 6 4 5 5 4 3 3 2 2 1 3 4 5 5 5 6 6 6 6 6 6 6 6 6 7 8 8 8 8 8 9 8 9 8 8 8
10 10 9 9 9 10 9 10 11 11 10 9 5 5 4 5 4 3 2 2 2 2 2 2 2 4 4 5 6 6 6 7 6 6 6 6 7 7 7 8 8 8 8 8 9 9 9 8 8
9 9 9 9 9 9 10 11 11 11 10 9 5 5 4 4 4 3 3 3 2 1 1 1 2 3 4 5 5 6 6 6 7 7 7 6 7 7 7 7 7 8 8 8 9 9 9 9 8
9 11 10 10 9 10 10 11 12 11 10 10 8 5 5 4 3 4 4 4 3 3 2 1 1 2 4 5 5 6 6 6 7 7 6 7 7 7 8 8 8 8 8 8 8 8 8 8 8
10 11 13 10 9 9 10 13 10 11 11 10 10 6 5 4 4 5 5 5 5 6 6 5 4 3 3 4 5 5 5 6 6 6 7 6 6 7 8 8 8 8 8 8 9 9 10 9 9
10 15 13 12 10 11 11 13 9 9 10 11 10 10 8 6 6 7 7 7 7 7 6 6 6 6 3 4 5 6 6 6 6 7 7 6 6 6 8 8 8 8 8 8 9 9 10 10 10
14 14 12 13 11 12 13 12 11 10 10 11 11 11 10 9 9 8 7 7 7 7 7 6 6 6 5 3 4 5 5 5 5 5 5 5 5 5 6 7 7 7 8 8 9 9 9 10 10
12 13 13 12 11 14 13 14 13 12 12 12 11 10 9 8 7 7 6 6 6 6 5 5 5 5 5 4 5 5 5 5 5 5 4 4 5 5 6 6 6 6 7 7 7 8 9 9 9
12 13 14 12 11 13 14 15 13 12 12 12 12 12 10 10 8 7 7 7 7 7 7 6 5 5 5 4 4 4 5 5 5 4 5 4 4 4 5 6 6 6 7 7 7 8 9 9 9
13 15 16 15 13 12 15 15 14 12 11 11 11 11 11 10 9 9 8 8 8 8 7 6 6 5 5 4 4 5 5 5 5 5 5 5 5 5 5 5 6 6 6 7 7 8 8 9 9
14 13 13 14 17 19 15 19 16 14 13 12 12 13 12 11 10 9 9 9 9 8 8 7 6 6 5 5 6 6 6 6 5 5 6 5 5 5 5 5 6 7 7 7 7 6 7 8 9
15 13 15 16 18 19 18 20 17 14 16 15 14 13 13 12 11 11 10 9 8 8 9 8 7 7 6 6 6 6 7 6 6 6 6 6 6 6 6 6 7 7 7 7 7 8 7 7 8
13 16 16 17 18 21 24 22 19 17 16 15 14 14 13 13 12 11 11 9 9 9 9 9 9 8 7 7 7 7 7 7 6 6 6 6 6 7 7 7 8 8 8 8 8 8 8 8 8
15 16 19 21 21 20 26 23 19 16 15 15 15 15 14 14 14 13 13 13 12 11 11 9 9 9 9 8 8 7 7 7 7 7 7 7 7 8 8 8 8 9 9 9 9 9 9 9 9
17 19 21 27 23 22 26 24 19 15 15 15 15 15 14 14 14 14 13 13 13 12 12 11 10 10 9 9 9 8 8 8 7 7 7 8 8 8 8 9 9 9 9 9 9 10 10 9 10
17 20 19 24 29 27 21 18 18 16 17 16 16 16 16 15 15 14 14 13 13 12 12 11 11 11 9 9 9 9 8 8 8 8 8 8 8 8 8 8 9 9 9 9 10 10 10 10 10
17 18 21 21 27 28 22 24 20 21 22 19 18 18 16 16 15 15 14 13 13 13 12 12 11 12 11 10 9 8 9 9 9 9 9 9 9 9 9 9 9 8 8 9 9 10 10 10 10
20 20 20 20 20 25 26 21 18 23 23 23 22 17 20 19 16 16 15 14 14 13 13 12 12 12 12 11 11 11 9 9 9 10 10 9 9 9 9 9 9 9 9 9 9 10 10 11 11
19 18 17 22 25 23 23 24 20 22 22 22 22 18 18 19 18 17 15 14 14 13 13 13 13 13 12 12 12 12 10 9 10 10 11 10 10 9 9 8 8 8 8 9 9 10 10 11 12